OOCL Kaohsiung — 9V9830 — position and weather

sailwx.info

Track history (hours):
 
Tides and Currents Weather Stations Pressure Air Temp Water Temp Dewpoint Dewpoint Depression Visibility Wind Speed Wind Dir Waves Ship Positions

OOCL Kaohsiung

Last reported at 2014-Sep-04 15:30 UTC. Time now 2014-Sep-20 10:04 UTC.
Position N 31°28' E 031°45'.
Warning: this ship's position is 15 days out of date.

Length 280 m; draft 12.4 m.

Type: Cargo ship. MMSI: 566389000.

Date/timePositionNaut miles runAvg speedWind from/ knotsBaromVisibWave heightAir tempDewpointWater temp
2014-Sep-04 15:30N 31°28' E 031°45'1 1.4
2014-Sep-04 14:34N 31°29' E 031°45'9 9.0
2014-Sep-04 13:33N 31°38' E 031°47'1111.1
2014-Sep-04 12:33N 31°46' E 031°38'1312.5
2014-Sep-04 11:33N 31°54' E 031°26'1212.2
2014-Sep-04 10:33N 32°02' E 031°16'6 6.2
2014-Sep-04 09:33N 32°05' E 031°10'1616.4
2014-Sep-04 08:34N 32°10' E 030°51'1917.9
2014-Sep-04 07:30N 32°15' E 030°29'1717.9
2014-Sep-04 06:33N 32°19' E 030°10'3617.6
2014-Sep-04 04:32N 32°31' E 029°30'3417.3
2014-Sep-04 02:33N 32°41' E 028°51'1917.2
2014-Sep-04 01:27N 32°47' E 028°30'1517.1
2014-Sep-04 00:33N 32°52' E 028°13'70918.1
2014-Sep-02 09:30N 36°24' E 014°31'308 8.8
2014-Aug-31 22:23N 39°13' E 009°04'0 0.0
2014-Aug-31 21:32N 39°13' E 009°04'0 0.0
2014-Aug-31 20:32N 39°13' E 009°04'0 0.0
2014-Aug-31 19:32N 39°13' E 009°04'0 0.0
2014-Aug-31 18:32N 39°13' E 009°04'0 0.0
2014-Aug-31 17:32N 39°13' E 009°04'0 0.0
2014-Aug-31 16:32N 39°13' E 009°04'0 0.0
2014-Aug-31 15:32N 39°13' E 009°04'0 0.0
2014-Aug-31 14:32N 39°13' E 009°04'0 0.0
2014-Aug-31 13:32N 39°13' E 009°04'0 0.0
2014-Aug-31 12:32N 39°13' E 009°04'0 0.0
2014-Aug-31 11:32N 39°13' E 009°04'0 0.0
2014-Aug-31 10:32N 39°13' E 009°04'0 0.0
2014-Aug-31 09:32N 39°13' E 009°04'0 0.0
2014-Aug-31 08:32N 39°13' E 009°04'0 0.0
2014-Aug-31 07:32N 39°13' E 009°04'0 0.0
2014-Aug-31 06:32N 39°13' E 009°04'0 0.0
2014-Aug-31 05:32N 39°13' E 009°04'0 0.0
2014-Aug-31 04:32N 39°13' E 009°04'1 0.5
2014-Aug-31 03:34N 39°13' E 009°04'5 5.2
2014-Aug-31 02:33N 39°08' E 009°06'8 7.6
2014-Aug-31 01:33N 39°01' E 009°07'1312.8
2014-Aug-31 00:33N 38°50' E 008°58'1414.2
2014-Aug-30 23:33N 38°43' E 008°42'1714.8
2014-Aug-30 22:23N 38°41' E 008°20'1416.9
2014-Aug-30 21:33N 38°37' E 008°03'1918.8
2014-Aug-30 20:33N 38°33' E 007°40'1717.0
2014-Aug-30 19:34N 38°28' E 007°19'1717.4
2014-Aug-30 18:33N 38°22' E 006°58'1717.3
2014-Aug-30 17:33N 38°17' E 006°37'1717.5
2014-Aug-30 16:34N 38°13' E 006°15'1817.5
2014-Aug-30 15:33N 38°08' E 005°54'1717.3
2014-Aug-30 14:33N 38°04' E 005°32'1817.2
2014-Aug-30 13:29N 37°58' E 005°10'1717.5
2014-Aug-30 12:32N 37°52' E 004°51'2117.6
2014-Aug-30 11:20N 37°45' E 004°25'3117.1
2014-Aug-30 09:30N 37°37' E 003°47'1816.6
2014-Aug-30 08:26N 37°33' E 003°25'1917.6
2014-Aug-30 07:22N 37°29' E 003°02'1617.1
2014-Aug-30 06:27N 37°25' E 002°43'1817.0
2014-Aug-30 05:22N 37°21' E 002°20'1417.2
2014-Aug-30 04:33N 37°17' E 002°03'1717.5
2014-Aug-30 03:34N 37°13' E 001°42'1717.1
2014-Aug-30 02:33N 37°09' E 001°21'1716.9
2014-Aug-30 01:33N 37°05' E 001°01'1716.9
2014-Aug-30 00:33N 37°00' E 000°40'1717.2
2014-Aug-29 23:33N 36°56' E 000°19'2517.5
2014-Aug-29 22:08N 36°49' W 000°10'1017.2
2014-Aug-29 21:33N 36°45' W 000°22'1716.6
2014-Aug-29 20:33N 36°41' W 000°42'1717.4
2014-Aug-29 19:33N 36°37' W 001°03'1717.4
2014-Aug-29 18:33N 36°31' W 001°23'1818.2
2014-Aug-29 17:33N 36°27' W 001°46'3221.2
2014-Aug-29 16:03N 36°21' W 002°25'917.4
2014-Aug-29 15:33N 36°20' W 002°35'13416.0
2014-Aug-29 07:12N 35°59' W 005°18'8518.2
2014-Aug-29 02:34N 35°54' W 007°03'1717.2
2014-Aug-29 01:34N 35°54' W 007°24'1917.3
2014-Aug-29 00:27N 35°54' W 007°48'1517.1
2014-Aug-28 23:33N 35°57' W 008°06'2417.3
2014-Aug-28 22:08N 36°04' W 008°35'1220.2
2014-Aug-28 21:33N 36°08' W 008°49'1918.8
2014-Aug-28 20:33N 36°15' W 009°10'1717.4
2014-Aug-28 19:33N 36°21' W 009°31'1717.3
2014-Aug-28 18:33N 36°27' W 009°51'1817.6
2014-Aug-28 17:34N 36°33' W 010°11'2317.4
2014-Aug-28 16:14N 36°41' W 010°38'1417.1
2014-Aug-28 15:24N 36°46' W 010°55'1617.6
2014-Aug-28 14:30N 36°51' W 011°14'7717.5
2014-Aug-28 10:04N 37°17' W 012°45'1717.5
2014-Aug-28 09:04N 37°22' W 013°06'1217.3
2014-Aug-28 08:23N 37°25' W 013°21'1517.7
2014-Aug-28 07:33N 37°28' W 013°39'  
Track history (hours):
 
Tides and Currents Weather Stations Pressure Air Temp Water Temp Dewpoint Dewpoint Depression Visibility Wind Speed Wind Dir Waves Ship Positions

OOCL Kaohsiung

Last reported at 2014-Sep-04 15:30 UTC. Time now 2014-Sep-20 10:04 UTC.
Position N 31°28' E 031°45'.
Warning: this ship's position is 15 days out of date.

Length 280 m; draft 12.4 m.

Type: Cargo ship. MMSI: 566389000.

Date/timePositionNaut miles runAvg speedWind from/ knotsBaromVisibWave heightAir tempDewpointWater temp
2014-Sep-04 15:30N 31°28' E 031°45'1 1.4
2014-Sep-04 14:34N 31°29' E 031°45'9 9.0
2014-Sep-04 13:33N 31°38' E 031°47'1111.1
2014-Sep-04 12:33N 31°46' E 031°38'1312.5
2014-Sep-04 11:33N 31°54' E 031°26'1212.2
2014-Sep-04 10:33N 32°02' E 031°16'6 6.2
2014-Sep-04 09:33N 32°05' E 031°10'1616.4
2014-Sep-04 08:34N 32°10' E 030°51'1917.9
2014-Sep-04 07:30N 32°15' E 030°29'1717.9
2014-Sep-04 06:33N 32°19' E 030°10'3617.6
2014-Sep-04 04:32N 32°31' E 029°30'3417.3
2014-Sep-04 02:33N 32°41' E 028°51'1917.2
2014-Sep-04 01:27N 32°47' E 028°30'1517.1
2014-Sep-04 00:33N 32°52' E 028°13'70918.1
2014-Sep-02 09:30N 36°24' E 014°31'308 8.8
2014-Aug-31 22:23N 39°13' E 009°04'0 0.0
2014-Aug-31 21:32N 39°13' E 009°04'0 0.0
2014-Aug-31 20:32N 39°13' E 009°04'0 0.0
2014-Aug-31 19:32N 39°13' E 009°04'0 0.0
2014-Aug-31 18:32N 39°13' E 009°04'0 0.0
2014-Aug-31 17:32N 39°13' E 009°04'0 0.0
2014-Aug-31 16:32N 39°13' E 009°04'0 0.0
2014-Aug-31 15:32N 39°13' E 009°04'0 0.0
2014-Aug-31 14:32N 39°13' E 009°04'0 0.0
2014-Aug-31 13:32N 39°13' E 009°04'0 0.0
2014-Aug-31 12:32N 39°13' E 009°04'0 0.0
2014-Aug-31 11:32N 39°13' E 009°04'0 0.0
2014-Aug-31 10:32N 39°13' E 009°04'0 0.0
2014-Aug-31 09:32N 39°13' E 009°04'0 0.0
2014-Aug-31 08:32N 39°13' E 009°04'0 0.0
2014-Aug-31 07:32N 39°13' E 009°04'0 0.0
2014-Aug-31 06:32N 39°13' E 009°04'0 0.0
2014-Aug-31 05:32N 39°13' E 009°04'0 0.0
2014-Aug-31 04:32N 39°13' E 009°04'1 0.5
2014-Aug-31 03:34N 39°13' E 009°04'5 5.2
2014-Aug-31 02:33N 39°08' E 009°06'8 7.6
2014-Aug-31 01:33N 39°01' E 009°07'1312.8
2014-Aug-31 00:33N 38°50' E 008°58'1414.2
2014-Aug-30 23:33N 38°43' E 008°42'1714.8
2014-Aug-30 22:23N 38°41' E 008°20'1416.9
2014-Aug-30 21:33N 38°37' E 008°03'1918.8
2014-Aug-30 20:33N 38°33' E 007°40'1717.0
2014-Aug-30 19:34N 38°28' E 007°19'1717.4
2014-Aug-30 18:33N 38°22' E 006°58'1717.3
2014-Aug-30 17:33N 38°17' E 006°37'1717.5
2014-Aug-30 16:34N 38°13' E 006°15'1817.5
2014-Aug-30 15:33N 38°08' E 005°54'1717.3
2014-Aug-30 14:33N 38°04' E 005°32'1817.2
2014-Aug-30 13:29N 37°58' E 005°10'1717.5
2014-Aug-30 12:32N 37°52' E 004°51'2117.6
2014-Aug-30 11:20N 37°45' E 004°25'3117.1
2014-Aug-30 09:30N 37°37' E 003°47'1816.6
2014-Aug-30 08:26N 37°33' E 003°25'1917.6
2014-Aug-30 07:22N 37°29' E 003°02'1617.1
2014-Aug-30 06:27N 37°25' E 002°43'1817.0
2014-Aug-30 05:22N 37°21' E 002°20'1417.2
2014-Aug-30 04:33N 37°17' E 002°03'1717.5
2014-Aug-30 03:34N 37°13' E 001°42'1717.1
2014-Aug-30 02:33N 37°09' E 001°21'1716.9
2014-Aug-30 01:33N 37°05' E 001°01'1716.9
2014-Aug-30 00:33N 37°00' E 000°40'1717.2
2014-Aug-29 23:33N 36°56' E 000°19'2517.5
2014-Aug-29 22:08N 36°49' W 000°10'1017.2
2014-Aug-29 21:33N 36°45' W 000°22'1716.6
2014-Aug-29 20:33N 36°41' W 000°42'1717.4
2014-Aug-29 19:33N 36°37' W 001°03'1717.4
2014-Aug-29 18:33N 36°31' W 001°23'1818.2
2014-Aug-29 17:33N 36°27' W 001°46'3221.2
2014-Aug-29 16:03N 36°21' W 002°25'917.4
2014-Aug-29 15:33N 36°20' W 002°35'13416.0
2014-Aug-29 07:12N 35°59' W 005°18'8518.2
2014-Aug-29 02:34N 35°54' W 007°03'1717.2
2014-Aug-29 01:34N 35°54' W 007°24'1917.3
2014-Aug-29 00:27N 35°54' W 007°48'1517.1
2014-Aug-28 23:33N 35°57' W 008°06'2417.3
2014-Aug-28 22:08N 36°04' W 008°35'1220.2
2014-Aug-28 21:33N 36°08' W 008°49'1918.8
2014-Aug-28 20:33N 36°15' W 009°10'1717.4
2014-Aug-28 19:33N 36°21' W 009°31'1717.3
2014-Aug-28 18:33N 36°27' W 009°51'1817.6
2014-Aug-28 17:34N 36°33' W 010°11'2317.4
2014-Aug-28 16:14N 36°41' W 010°38'1417.1
2014-Aug-28 15:24N 36°46' W 010°55'1617.6
2014-Aug-28 14:30N 36°51' W 011°14'7717.5
2014-Aug-28 10:04N 37°17' W 012°45'1717.5
2014-Aug-28 09:04N 37°22' W 013°06'1217.3
2014-Aug-28 08:23N 37°25' W 013°21'1517.7
2014-Aug-28 07:33N 37°28' W 013°39'  

Dump ship's entire track history